Temp
9 9 9 9 9 9 9 9 9 9 9 9 9 9 9 9 9 9 9 9 9 9 9 9 9 9 10 10 10 10 10 10 10 10 10 10 10 9 9 9 9 9 9 9 9 9 9 9 9 9 9 9 9 9 9 9 9 9 9 9 9 9 9 9 9 9 9 9 9 9 9 9 9 9 9 9 9 9 9 9 10 10 10 10 10
9 9 9 9 9 9 9 9 9 9 9 9 9 9 9 9 8 8 9 9 9 9 9 9 9 9 10 10 10 10 10 10 10 10 10 10 10 9 9 9 9 9 9 9 9 9 9 9 9 9 9 8 9 9 9 9 9 9 9 9 9 8 8 8 8 8 9 9 8 8 8 9 9 9 9 9 9 9 9 9 9 9 10 10 10
9 9 9 9 9 9 9 9 9 9 9 9 9 9 9 8 8 8 8 9 9 9 9 9 9 9 9 10 10 10 10 10 10 10 10 10 10 9 9 9 9 9 9 9 9 9 9 9 9 9 9 8 9 9 9 9 9 9 8 8 8 8 8 8 8 8 8 8 8 8 8 8 8 8 8 8 9 9 8 8 9 9 9 9 9
10 9 9 9 9 10 10 9 9 9 9 9 9 9 9 8 8 8 8 9 9 9 9 9 9 9 9 10 10 10 10 10 10 10 10 10 9 9 9 9 9 9 9 9 9 9 9 9 9 9 8 8 9 9 9 9 9 9 9 8 8 8 8 8 8 8 8 8 8 8 8 8 8 8 8 8 8 8 8 8 9 9 9 9 9
10 10 9 9 10 10 10 10 10 10 9 9 9 9 8 8 8 8 8 9 9 9 9 9 9 9 10 10 10 10 10 10 10 10 10 10 9 9 9 9 9 9 9 9 9 9 9 9 9 9 8 8 9 9 9 9 9 9 9 9 9 9 8 8 8 8 8 8 8 8 8 8 8 8 8 8 8 8 8 8 8 8 8 9 9
10 10 10 10 10 10 10 10 10 10 9 9 9 9 8 8 8 8 8 9 9 9 9 9 10 10 10 10 10 10 10 10 10 10 10 9 9 9 9 9 9 9 9 9 9 9 9 9 9 8 8 9 9 9 9 9 9 8 8 9 9 9 8 8 8 8 8 8 8 8 8 8 8 8 8 8 8 8 8 8 8 8 8 8 9
10 10 10 10 10 10 10 10 10 9 9 9 9 9 8 8 8 8 8 9 9 9 9 10 10 10 10 10 9 10 10 10 10 10 9 9 9 9 9 9 9 9 9 9 9 9 9 9 9 9 8 9 9 9 9 9 8 8 8 8 8 8 8 8 8 8 8 8 8 8 8 8 8 8 8 8 8 8 8 8 8 8 8 8 8
10 10 10 10 10 10 10 10 10 9 9 9 9 9 9 8 8 8 9 9 9 9 9 10 10 10 10 9 9 9 9 9 9 9 9 9 9 9 9 9 9 9 9 9 9 9 9 9 9 9 9 9 9 9 9 9 9 8 8 8 8 8 8 8 9 8 9 9 9 8 8 8 8 8 8 8 8 8 8 8 8 8 8 8 8
10 10 10 10 10 10 10 9 9 9 9 9 9 9 9 8 8 8 9 9 9 9 9 9 9 9 9 9 9 9 9 9 9 9 9 9 9 9 9 9 9 9 9 9 9 9 9 9 9 9 9 9 9 9 9 9 9 8 8 8 8 8 8 8 8 8 8 8 8 8 8 8 8 8 8 8 8 8 8 8 8 8 8 8 9
10 10 10 10 10 10 10 9 9 9 9 9 9 9 9 9 8 9 9 9 9 9 9 9 9 9 9 9 9 9 9 9 9 9 9 9 9 9 9 9 9 9 9 9 9 9 9 9 9 9 9 9 9 9 9 9 8 8 8 8 8 8 8 8 8 8 8 8 8 8 8 8 8 8 8 8 8 8 8 8 7 7 8 8 8
10 10 10 10 10 10 10 9 9 9 9 9 9 9 9 9 9 9 9 9 9 9 9 9 9 9 9 9 9 9 9 9 9 9 9 9 9 9 9 9 9 9 9 9 9 9 9 9 9 9 9 9 9 9 9 8 8 8 8 8 8 8 8 8 8 8 8 8 8 8 8 8 8 8 8 8 8 8 8 8 7 7 7 7 7
10 10 10 10 10 10 10 9 9 9 9 9 9 9 9 9 9 9 9 9 9 9 9 9 9 9 9 9 9 9 9 9 9 9 9 9 9 9 9 9 9 9 9 9 9 9 9 9 9 9 9 9 8 8 8 8 8 8 8 8 8 8 8 8 8 8 8 8 8 8 8 8 8 8 8 8 8 8 8 8 7 7 7 7 7
10 10 10 10 10 10 10 9 9 9 9 9 9 9 8 8 8 9 9 9 9 9 9 9 9 9 9 9 9 9 9 9 9 9 9 9 9 9 9 9 9 9 9 9 9 9 9 9 9 9 9 9 8 8 8 8 8 8 8 8 8 8 8 8 8 8 8 8 8 8 8 8 8 8 8 8 8 8 8 8 8 8 8 8 7
10 10 10 10 10 10 10 10 9 9 9 9 9 8 8 8 8 8 9 9 9 9 9 9 9 9 9 9 9 9 9 9 9 9 9 9 9 9 9 9 9 9 9 9 9 9 9 9 9 9 9 9 8 8 9 8 8 8 8 8 8 8 8 8 8 8 8 8 8 8 8 8 8 8 8 8 8 8 8 8 8 8 8 8 8
10 10 10 10 10 10 10 10 9 9 9 9 8 8 8 8 8 8 9 9 9 9 9 9 9 9 9 9 9 9 9 9 9 9 9 9 9 9 9 9 9 9 9 9 9 9 9 9 9 9 9 9 9 9 9 9 8 8 8 8 8 8 8 8 8 8 8 8 8 8 8 8 8 8 8 8 8 8 8 8 8 9 8 8 8
10 10 10 10 10 10 10 10 9 9 9 9 8 8 8 8 8 9 9 9 9 9 9 9 9 9 9 9 9 9 9 9 9 9 9 9 9 9 9 9 9 9 9 9 9 9 9 9 9 9 9 9 9 9 9 9 8 8 8 8 8 8 8 8 8 8 8 8 8 8 8 8 8 8 8 8 8 8 8 8 8 8 8 8 8
10 10 10 10 10 10 10 10 9 9 9 9 8 8 8 8 9 9 9 9 9 9 9 9 9 9 9 9 9 9 9 9 9 9 9 9 9 9 9 9 9 9 9 9 9 9 9 9 9 9 9 9 9 9 9 9 8 8 8 8 8 8 8 8 8 8 8 8 8 8 8 8 8 8 8 8 8 8 8 8 8 8 8 8 8
10 10 10 10 10 10 10 10 9 9 9 9 9 8 8 9 9 9 9 9 9 9 9 9 9 9 9 9 9 9 8 8 9 9 9 9 9 9 9 9 9 9 9 9 9 9 9 9 9 9 9 9 9 9 9 8 8 8 8 8 8 8 8 8 8 8 8 8 8 8 8 8 8 8 8 8 8 8 8 8 8 8 8 8 8
10 10 10 10 10 10 10 10 9 9 9 9 9 9 9 9 9 9 9 9 9 9 9 9 9 9 9 8 8 8 8 9 9 9 9 9 9 9 9 9 9 9 9 9 9 9 9 9 9 9 9 9 9 9 9 8 8 8 8 8 8 8 8 8 8 8 8 8 8 8 8 8 8 8 8 8 8 8 8 8 8 8 8 8 8
10 10 10 10 10 10 10 10 10 9 9 9 9 9 9 9 9 9 9 9 9 9 9 9 8 8 9 9 9 9 9 9 9 9 9 9 9 9 9 9 9 9 9 9 9 9 9 9 9 9 9 9 9 9 8 8 8 8 8 8 8 8 8 8 8 8 8 8 8 8 8 8 8 8 8 8 8 8 8 8 8 8 8 8 8
10 10 10 10 10 10 10 10 10 9 9 9 9 9 9 9 9 9 9 9 9 9 9 8 8 8 9 9 9 9 9 9 9 9 9 9 9 9 9 9 9 9 9 9 9 9 9 9 9 9 8 8 8 8 8 8 8 8 8 8 8 8 8 8 8 8 8 8 8 8 8 8 8 8 8 8 8 8 8 8 8 8 8 8 8
10 10 10 10 10 10 10 10 10 10 9 9 9 9 9 9 9 9 9 9 9 9 9 9 9 9 9 9 9 9 9 9 9 9 9 9 9 9 9 9 9 9 9 9 9 9 9 9 9 9 8 8 8 8 8 8 8 8 8 8 8 8 8 8 8 8 8 8 8 8 8 8 8 8 8 8 8 8 8 8 8 8 9 9 9
10 10 10 10 10 10 10 10 10 10 9 9 9 9 9 9 9 9 9 9 9 9 9 9 9 9 9 9 9 10 10 9 9 9 9 9 9 9 9 9 9 9 9 9 9 9 9 9 9 9 9 8 8 8 8 8 8 8 8 8 8 8 8 8 8 8 8 8 8 8 8 8 8 8 8 8 8 8 8 8 8 8 8 9 9
11 11 10 10 10 10 10 10 10 10 10 9 9 9 9 9 9 9 9 9 9 9 9 9 9 9 9 9 10 10 10 9 9 9 9 9 9 9 9 9 9 9 9 9 9 9 9 9 9 9 9 8 8 8 8 8 8 8 8 8 8 8 8 8 8 8 8 8 8 8 8 8 8 8 8 8 8 8 8 8 8 8 8 9 9
11 11 11 10 10 10 10 10 10 10 10 10 9 9 9 9 9 9 9 9 9 9 9 9 9 9 9 10 10 10 10 10 9 9 9 9 9 9 9 9 9 9 9 9 9 9 9 9 8 9 9 8 8 8 8 9 9 8 8 8 8 8 8 8 8 8 8 8 8 8 8 8 8 8 8 8 8 8 8 8 8 8 8 8 9
11 11 11 11 10 10 10 10 10 10 10 10 10 9 9 9 9 9 9 9 9 9 9 9 9 9 10 9 9 10 10 9 9 9 9 9 9 9 9 9 9 9 9 9 9 9 9 9 8 9 9 9 9 9 9 9 9 8 8 8 8 8 8 8 8 8 8 8 8 8 8 8 8 8 8 8 8 8 8 8 8 8 8 8 9
11 11 11 11 11 10 10 10 10 10 10 10 10 9 9 9 9 9 9 9 9 9 10 9 9 9 10 9 9 9 10 9 10 9 9 9 9 9 9 9 9 9 9 8 9 9 9 9 9 8 9 9 8 8 9 9 9 9 9 8 8 8 8 8 8 8 8 8 8 8 8 8 8 8 8 8 8 8 8 8 8 8 8 8 9
11 11 11 11 11 11 10 10 10 10 10 10 10 10 10 10 9 9 9 9 9 10 10 10 9 10 9 9 9 9 9 9 9 9 9 9 9 9 9 9 9 9 9 9 9 9 9 9 9 8 8 8 8 8 8 8 9 9 9 9 8 8 8 8 8 8 7 8 8 8 8 8 8 8 8 8 8 8 8 8 8 8 8 8 9
11 11 11 11 11 11 11 10 10 10 10 10 10 10 10 10 10 10 9 9 10 10 10 10 9 9 9 9 10 9 9 9 9 9 9 9 9 9 9 9 9 9 9 9 9 9 9 9 9 9 8 8 8 8 8 8 8 9 9 9 8 8 8 8 8 8 8 8 8 8 8 8 8 8 8 8 8 8 8 8 8 8 8 8 8
11 11 11 11 11 11 11 11 10 10 10 10 10 10 10 10 10 10 10 10 10 10 10 10 9 9 9 9 9 9 9 9 9 9 9 10 9 9 9 9 9 9 9 9 9 9 9 9 9 9 8 8 8 8 8 8 8 9 9 8 8 8 8 8 8 8 8 8 8 8 8 8 8 8 8 8 8 8 8 8 8 8 8 8 8
11 11 11 11 11 11 11 11 11 10 10 10 10 10 10 10 10 10 10 10 10 10 10 10 10 9 9 9 9 9 10 10 9 9 9 9 9 9 9 9 9 9 9 9 9 9 9 9 9 9 9 8 8 8 8 8 8 9 9 8 8 8 8 8 8 8 8 8 8 8 8 8 8 8 8 8 8 8 8 8 8 8 8 8 8
11 11 11 11 11 11 11 11 11 11 11 11 10 10 10 10 10 10 10 10 10 10 10 10 10 10 10 9 9 9 10 10 10 10 10 9 9 9 9 9 9 9 9 9 9 9 9 9 9 9 9 9 8 8 8 8 8 8 9 8 8 8 8 8 8 8 8 7 7 8 8 8 8 8 8 8 8 8 8 8 8 8 8 8 8
11 11 11 11 11 11 11 11 11 11 11 11 11 11 10 10 10 10 10 10 10 10 10 10 10 10 10 9 9 9 9 10 10 10 10 9 9 9 9 9 9 9 9 9 9 9 9 9 9 9 9 9 8 8 8 8 8 8 9 9 9 8 8 8 8 8 7 7 7 7 8 8 8 8 8 8 8 8 8 8 8 8 8 8 8
11 11 11 11 11 11 11 11 11 11 11 11 11 11 10 10 10 10 10 10 10 10 10 10 10 10 10 9 9 9 9 10 10 10 10 9 9 9 9 9 9 9 9 9 9 9 9 9 9 9 9 9 9 8 8 8 8 8 9 9 8 8 8 8 8 8 7 7 7 8 8 8 8 8 8 8 8 8 8 8 8 8 8 8 8
11 11 11 11 11 11 11 11 11 11 11 11 11 11 11 10 10 10 10 10 10 10 10 10 10 10 10 10 9 9 9 10 10 10 10 10 10 9 9 9 9 9 9 9 9 9 9 9 9 9 9 9 9 9 8 8 8 8 8 9 8 7 7 8 8 8 7 7 7 8 8 8 8 8 8 8 8 8 8 8 8 8 8 8 8
12 12 11 11 11 11 11 11 11 11 11 11 11 11 11 10 10 10 10 10 10 11 10 10 10 10 10 10 10 10 10 10 10 10 10 10 10 10 9 9 9 9 9 9 9 9 9 9 9 9 9 9 9 9 9 9 8 8 8 8 8 7 8 8 8 8 7 7 7 7 8 8 8 8 8 8 8 8 8 8 8 8 8 8 8
12 12 11 11 11 11 11 11 11 11 11 11 11 11 11 10 10 10 10 10 11 11 11 10 10 10 10 10 10 10 10 10 10 10 10 10 10 10 10 9 9 9 10 10 10 9 9 10 9 9 9 9 9 9 9 9 9 9 8 8 7 7 8 8 7 7 7 7 7 7 8 8 8 8 8 8 8 8 8 8 8 8 8 8 8
12 12 12 11 11 11 11 11 11 11 11 11 11 11 11 10 10 10 10 11 11 11 11 10 10 10 10 10 10 10 10 10 10 10 10 10 10 10 10 10 9 10 10 10 10 10 10 10 10 9 9 9 9 9 9 9 9 9 9 8 7 7 8 7 7 7 7 7 7 7 7 8 8 8 8 8 8 8 8 8 8 8 8 8 8
12 12 12 11 11 11 11 11 11 11 11 11 11 11 11 11 10 10 10 10 11 11 11 11 10 10 10 10 10 10 10 10 10 10 10 10 10 10 10 10 10 10 10 10 10 10 10 10 9 9 9 9 9 9 9 9 9 9 9 8 8 7 7 7 7 7 8 8 8 8 8 8 7 8 8 8 8 8 8 8 8 8 8 8 8
12 12 12 12 11 11 11 11 11 11 11 11 11 11 11 11 11 11 11 11 11 11 11 11 11 10 10 10 10 10 10 11 10 10 10 10 10 10 10 10 10 10 10 10 10 10 10 10 9 9 9 9 9 9 9 9 9 9 9 9 8 7 8 7 7 7 8 7 7 7 8 7 7 8 8 8 8 8 8 8 8 8 8 8 8
12 12 12 12 12 11 11 11 11 11 11 11 11 11 11 11 11 11 11 11 11 11 11 11 11 11 10 10 10 10 11 11 11 11 10 10 10 10 10 10 10 10 10 10 10 10 10 10 9 9 9 10 10 10 9 9 9 9 9 9 8 8 8 7 7 7 7 7 7 7 7 7 7 8 9 8 8 8 8 8 8 8 8 8 7
12 12 12 12 12 12 12 11 11 12 12 12 11 12 12 12 11 11 11 11 11 11 12 11 11 10 10 10 10 10 11 11 11 11 10 10 10 10 10 10 10 10 10 10 10 10 10 10 10 10 10 10 10 10 10 10 9 9 9 9 8 8 8 7 7 7 8 8 8 8 7 7 8 9 9 9 9 8 8 8 8 8 8 8 7
12 12 12 12 12 12 12 11 11 12 12 12 12 12 12 12 11 11 11 11 11 11 11 11 11 10 10 10 10 10 11 11 11 11 11 10 10 10 10 10 10 10 10 10 10 10 10 10 10 10 10 10 10 10 10 10 9 9 9 9 9 9 8 7 7 8 9 8 8 8 8 8 8 9 9 8 9 9 8 8 8 8 8 8 8
13 12 12 12 12 12 12 12 12 12 12 12 12 11 11 11 11 11 11 11 11 11 11 11 11 10 10 10 10 10 10 11 11 11 11 10 10 10 10 10 10 10 10 10 10 10 10 10 10 10 10 10 10 10 11 11 10 9 9 9 9 9 8 8 8 9 9 9 8 8 8 8 8 8 8 8 9 9 8 8 8 8 8 8 8
13 13 13 13 13 13 13 12 12 12 12 12 12 11 11 11 11 11 10 10 11 11 11 12 11 11 10 10 11 10 10 11 11 11 11 10 10 10 10 10 10 10 11 11 10 10 10 10 11 11 10 10 10 11 11 11 10 10 10 9 9 9 8 8 8 9 9 9 8 8 8 9 8 8 8 8 8 8 8 8 8 8 8 8 8
14 13 13 13 13 13 13 13 12 12 12 12 12 11 11 11 11 11 11 11 11 12 12 12 12 11 11 11 11 11 10 11 11 11 11 11 10 10 10 10 10 10 10 11 10 10 10 11 11 11 11 11 11 11 11 11 11 10 10 10 9 9 9 8 8 8 9 8 8 8 9 9 8 8 8 8 8 8 8 8 8 8 8 8 8
14 14 14 13 13 13 13 13 12 12 12 12 12 12 12 12 12 12 12 12 12 12 12 12 12 11 11 11 11 11 11 11 11 11 11 11 11 10 10 10 10 10 10 11 10 10 10 11 11 11 11 11 11 11 11 11 11 10 10 10 10 9 9 9 9 9 9 8 8 8 9 8 8 8 8 8 8 8 8 8 8 8 8 8 8
14 14 14 14 13 13 13 13 13 12 12 12 12 12 12 12 12 12 12 12 12 12 12 12 12 11 11 11 11 11 11 11 11 11 11 11 11 11 10 10 10 10 10 11 11 11 11 11 11 11 11 11 11 11 11 11 11 11 10 10 10 10 10 9 9 9 9 9 8 9 9 8 8 8 8 8 8 8 8 8 8 8 8 8 8
14 14 14 14 14 13 13 13 13 12 12 12 13 13 13 12 12 12 12 12 12 12 12 12 12 12 11 11 11 11 11 11 11 11 11 11 11 11 11 11 11 10 10 11 11 11 11 11 11 11 11 11 11 12 11 11 11 11 11 10 10 10 10 10 10 9 9 9 9 9 9 9 8 8 8 8 8 8 8 8 8 8 8 8 8
14 14 14 14 13 14 13 13 13 13 12 12 13 13 13 13 13 13 13 12 12 12 12 12 12 12 12 11 11 11 11 11 11 11 11 11 11 11 11 11 10 11 11 11 11 11 11 11 11 11 11 11 11 11 12 11 11 11 11 10 10 10 10 10 10 9 9 9 9 9 9 9 9 9 8 8 8 8 8 8 8 8 8 8 8
15 14 14 13 13 13 14 14 13 13 13 12 13 13 13 13 13 13 13 13 12 12 12 12 12 12 12 12 11 11 11 11 11 11 11 11 11 11 11 11 11 11 11 11 11 11 11 11 11 11 11 11 11 11 11 11 11 11 11 11 10 10 10 10 10 9 9 9 9 9 9 9 9 9 9 8 8 8 9 9 9 8 8 8 8
Height
3185 3187 3188 3189 3191 3192 3193 3194 3195 3196 3197 3198 3198 3199 3200 3200 3201 3202 3203 3203 3204 3204 3205 3205 3205 3205 3205 3206 3206 3206 3207 3208 3208 3209 3209 3209 3209 3210 3210 3210 3210 3210 3210 3210 3209 3208 3208 3207 3207 3207 3207 3207 3207 3207 3207 3206 3206 3206 3205 3205 3205 3205 3205 3205 3206 3207 3207 3208 3208 3209 3209 3210 3210 3211 3211 3212 3212 3213 3214 3214 3214 3215 3215 3215 3215
3186 3188 3189 3190 3192 3193 3194 3196 3197 3197 3198 3199 3199 3200 3201 3201 3202 3203 3204 3204 3205 3205 3206 3206 3206 3206 3207 3207 3207 3208 3208 3209 3209 3209 3210 3210 3210 3210 3210 3210 3210 3210 3210 3209 3209 3208 3208 3208 3207 3208 3208 3208 3208 3208 3207 3207 3207 3206 3206 3206 3205 3206 3206 3206 3207 3207 3208 3208 3208 3209 3209 3210 3210 3211 3211 3212 3212 3214 3214 3214 3214 3214 3215 3215 3215
3187 3188 3190 3191 3193 3194 3196 3197 3198 3199 3199 3200 3201 3201 3202 3203 3203 3204 3205 3205 3206 3206 3207 3207 3207 3208 3208 3208 3209 3209 3209 3209 3209 3210 3210 3210 3210 3210 3211 3211 3210 3210 3210 3209 3209 3208 3208 3208 3208 3208 3208 3208 3208 3208 3208 3207 3207 3207 3207 3206 3206 3206 3207 3207 3207 3208 3208 3208 3209 3209 3210 3210 3211 3211 3211 3212 3213 3214 3213 3213 3214 3214 3215 3215 3215
3189 3189 3191 3192 3194 3196 3197 3198 3199 3200 3200 3201 3202 3202 3203 3204 3205 3205 3206 3206 3207 3207 3208 3208 3209 3209 3209 3209 3209 3209 3209 3210 3210 3210 3210 3210 3211 3211 3211 3211 3210 3210 3210 3209 3209 3209 3209 3209 3209 3209 3209 3209 3209 3208 3208 3208 3207 3207 3207 3207 3207 3207 3207 3207 3208 3208 3209 3209 3209 3209 3210 3210 3211 3211 3211 3212 3214 3214 3212 3213 3214 3214 3215 3215 3216
3190 3190 3192 3193 3195 3197 3198 3199 3200 3201 3202 3202 3203 3204 3204 3205 3206 3206 3207 3207 3208 3208 3209 3209 3209 3210 3210 3210 3210 3210 3210 3210 3211 3211 3211 3211 3211 3211 3211 3211 3211 3210 3210 3210 3210 3210 3210 3210 3210 3210 3210 3209 3209 3209 3209 3208 3208 3208 3208 3208 3208 3208 3208 3208 3209 3209 3209 3209 3209 3210 3210 3210 3211 3211 3211 3212 3214 3214 3213 3213 3214 3214 3215 3215 3216
3191 3192 3193 3195 3197 3198 3199 3200 3201 3202 3203 3204 3204 3205 3206 3206 3207 3207 3208 3208 3209 3209 3210 3210 3210 3210 3210 3210 3210 3210 3211 3211 3211 3211 3212 3212 3212 3212 3212 3212 3211 3211 3211 3211 3210 3210 3211 3211 3211 3211 3210 3210 3209 3209 3209 3209 3209 3209 3209 3209 3209 3209 3210 3210 3210 3210 3210 3210 3210 3210 3210 3210 3211 3211 3212 3212 3213 3214 3214 3214 3214 3214 3215 3215 3216
3192 3193 3195 3196 3198 3199 3200 3201 3202 3203 3204 3205 3205 3206 3207 3207 3208 3208 3209 3209 3210 3210 3211 3211 3211 3211 3211 3211 3211 3211 3211 3212 3212 3212 3212 3213 3213 3213 3213 3212 3212 3212 3212 3211 3211 3211 3211 3211 3212 3211 3211 3211 3210 3210 3210 3210 3210 3210 3210 3210 3210 3210 3211 3211 3211 3211 3211 3211 3210 3210 3211 3211 3211 3212 3212 3212 3213 3214 3215 3215 3215 3215 3215 3216 3216
3193 3195 3196 3198 3199 3200 3201 3203 3203 3204 3205 3206 3207 3207 3207 3208 3208 3209 3210 3210 3211 3211 3212 3212 3211 3211 3211 3211 3212 3212 3212 3213 3213 3213 3213 3213 3213 3214 3214 3213 3213 3213 3213 3212 3212 3212 3212 3212 3212 3212 3212 3212 3211 3211 3211 3211 3211 3211 3211 3211 3211 3212 3212 3212 3212 3212 3212 3212 3212 3212 3212 3212 3212 3212 3212 3213 3214 3215 3217 3217 3217 3216 3216 3217 3217
3194 3196 3197 3199 3200 3201 3202 3203 3204 3205 3206 3207 3207 3208 3208 3209 3209 3210 3211 3211 3212 3212 3212 3212 3212 3212 3212 3212 3212 3213 3213 3214 3214 3214 3214 3214 3214 3215 3215 3215 3214 3214 3214 3213 3213 3213 3213 3213 3213 3213 3213 3213 3212 3212 3212 3212 3212 3212 3212 3212 3212 3213 3213 3213 3213 3213 3213 3213 3213 3213 3213 3213 3213 3213 3213 3214 3215 3215 3216 3217 3218 3218 3218 3218 3219
3195 3197 3198 3200 3201 3202 3203 3204 3205 3206 3207 3208 3208 3209 3209 3210 3210 3211 3212 3212 3212 3213 3213 3213 3213 3213 3213 3213 3213 3214 3214 3215 3215 3215 3215 3215 3216 3216 3216 3216 3215 3215 3215 3214 3214 3214 3214 3214 3214 3214 3214 3214 3213 3213 3213 3213 3213 3213 3214 3214 3214 3214 3214 3214 3214 3214 3214 3214 3214 3214 3214 3214 3214 3214 3214 3214 3215 3216 3216 3216 3216 3217 3219 3219 3220
3196 3198 3199 3201 3202 3203 3204 3205 3206 3207 3208 3208 3209 3209 3210 3211 3211 3212 3212 3213 3213 3213 3213 3214 3214 3214 3214 3214 3215 3215 3216 3216 3216 3216 3216 3217 3217 3216 3216 3216 3216 3215 3215 3215 3215 3215 3215 3215 3215 3215 3215 3215 3214 3214 3214 3214 3214 3214 3215 3215 3215 3215 3215 3215 3215 3215 3215 3215 3215 3215 3215 3215 3215 3215 3215 3215 3215 3216 3217 3216 3215 3215 3217 3217 3218
3197 3199 3200 3202 3203 3204 3205 3206 3207 3208 3208 3209 3210 3210 3211 3211 3212 3213 3213 3213 3213 3214 3214 3214 3214 3215 3215 3215 3216 3216 3217 3217 3217 3217 3217 3217 3217 3217 3217 3216 3216 3216 3216 3216 3216 3216 3216 3216 3216 3216 3216 3216 3215 3215 3215 3215 3215 3215 3215 3215 3215 3215 3216 3216 3216 3216 3216 3216 3216 3216 3216 3216 3216 3216 3216 3216 3216 3217 3217 3217 3216 3216 3217 3217 3218
3197 3199 3201 3202 3204 3205 3206 3207 3208 3208 3209 3210 3210 3211 3212 3212 3213 3213 3214 3214 3214 3214 3215 3215 3215 3215 3216 3217 3217 3217 3217 3217 3217 3218 3218 3218 3218 3217 3217 3217 3217 3217 3217 3217 3217 3217 3217 3217 3217 3217 3217 3217 3216 3216 3216 3216 3216 3216 3216 3216 3216 3216 3217 3217 3217 3217 3217 3217 3217 3217 3217 3217 3217 3217 3217 3217 3217 3218 3218 3218 3218 3218 3218 3219 3219
3198 3200 3201 3203 3204 3205 3206 3207 3208 3209 3210 3211 3211 3212 3213 3213 3214 3214 3214 3214 3215 3215 3215 3215 3216 3216 3217 3217 3218 3218 3218 3218 3218 3218 3218 3218 3218 3218 3218 3218 3218 3218 3218 3218 3218 3218 3218 3218 3218 3218 3218 3218 3217 3217 3217 3217 3217 3217 3217 3217 3217 3217 3217 3218 3218 3218 3218 3218 3218 3218 3218 3218 3218 3218 3219 3219 3218 3219 3219 3219 3219 3219 3220 3220 3220
3199 3200 3202 3203 3205 3206 3207 3208 3209 3210 3211 3211 3212 3213 3213 3214 3214 3215 3215 3215 3216 3216 3216 3216 3216 3217 3218 3218 3218 3218 3219 3219 3219 3219 3219 3219 3219 3219 3219 3219 3219 3219 3219 3219 3219 3219 3219 3219 3219 3219 3219 3219 3218 3218 3218 3218 3217 3217 3218 3218 3218 3218 3218 3218 3218 3218 3218 3218 3218 3219 3218 3219 3219 3219 3219 3220 3220 3220 3220 3220 3220 3220 3221 3221 3222
3200 3201 3202 3204 3205 3206 3207 3208 3209 3210 3211 3212 3213 3213 3214 3214 3215 3215 3216 3216 3216 3216 3217 3217 3217 3218 3218 3219 3219 3219 3219 3219 3219 3220 3220 3220 3220 3220 3220 3220 3220 3220 3220 3220 3220 3219 3219 3219 3219 3219 3219 3219 3219 3219 3218 3218 3218 3218 3218 3218 3218 3219 3218 3219 3219 3219 3219 3219 3219 3219 3219 3219 3219 3219 3220 3220 3220 3221 3221 3221 3221 3221 3222 3222 3223
3201 3202 3203 3204 3205 3206 3207 3209 3210 3211 3212 3213 3213 3214 3215 3215 3215 3216 3216 3217 3217 3217 3217 3218 3218 3219 3219 3219 3220 3220 3220 3220 3220 3221 3221 3221 3221 3221 3221 3221 3221 3221 3221 3221 3220 3220 3220 3220 3220 3220 3220 3220 3220 3219 3219 3219 3219 3219 3219 3219 3219 3219 3219 3219 3219 3220 3220 3220 3220 3220 3219 3219 3220 3220 3220 3220 3221 3221 3222 3222 3222 3223 3223 3223 3224
3201 3202 3204 3205 3206 3207 3208 3209 3210 3211 3212 3213 3214 3214 3215 3215 3216 3216 3217 3218 3218 3218 3219 3219 3219 3219 3220 3220 3221 3221 3221 3221 3221 3222 3222 3222 3222 3222 3222 3222 3222 3222 3222 3222 3221 3221 3221 3221 3221 3221 3221 3221 3220 3220 3220 3219 3219 3220 3220 3220 3220 3220 3220 3220 3220 3220 3220 3220 3220 3220 3220 3220 3220 3220 3220 3221 3221 3222 3222 3223 3223 3224 3224 3224 3225
3201 3203 3204 3205 3206 3207 3208 3210 3211 3212 3213 3213 3214 3215 3216 3216 3216 3217 3218 3219 3219 3219 3219 3220 3220 3220 3221 3221 3221 3221 3222 3222 3222 3223 3223 3223 3223 3223 3223 3223 3223 3223 3223 3223 3223 3222 3222 3222 3222 3222 3222 3222 3221 3221 3221 3221 3220 3220 3221 3221 3221 3221 3221 3221 3221 3221 3221 3221 3221 3221 3221 3221 3221 3221 3221 3221 3222 3222 3223 3223 3224 3224 3225 3225 3225
3201 3202 3204 3205 3207 3208 3209 3210 3211 3212 3213 3214 3215 3215 3216 3217 3217 3218 3219 3219 3220 3220 3220 3220 3221 3221 3221 3222 3222 3222 3222 3223 3223 3224 3224 3224 3224 3224 3224 3224 3224 3224 3224 3224 3224 3223 3223 3223 3223 3223 3223 3223 3222 3222 3222 3222 3221 3221 3221 3222 3222 3222 3222 3222 3222 3222 3222 3222 3222 3222 3222 3222 3222 3222 3222 3222 3223 3223 3223 3224 3224 3225 3225 3225 3226
3200 3202 3204 3205 3207 3208 3209 3210 3212 3213 3214 3214 3215 3216 3217 3218 3218 3219 3220 3220 3221 3221 3221 3221 3221 3222 3222 3222 3222 3223 3223 3223 3224 3224 3225 3225 3225 3225 3225 3225 3225 3225 3225 3225 3224 3224 3224 3224 3224 3224 3224 3223 3223 3223 3223 3223 3223 3222 3222 3223 3222 3222 3222 3223 3223 3223 3223 3223 3223 3223 3223 3223 3223 3223 3223 3223 3224 3224 3224 3224 3225 3225 3225 3225 3226
3199 3201 3203 3205 3206 3208 3209 3211 3212 3213 3214 3215 3216 3217 3218 3218 3219 3219 3220 3221 3221 3222 3222 3222 3222 3222 3222 3223 3223 3223 3224 3224 3225 3225 3226 3226 3226 3226 3226 3226 3225 3225 3225 3225 3225 3225 3225 3225 3225 3225 3224 3224 3224 3224 3224 3224 3224 3224 3224 3224 3223 3223 3223 3223 3223 3223 3223 3223 3223 3224 3224 3224 3224 3224 3224 3225 3225 3225 3225 3225 3226 3226 3226 3226 3226
3198 3200 3202 3204 3206 3208 3209 3211 3212 3213 3214 3215 3216 3218 3218 3219 3219 3220 3221 3221 3222 3222 3222 3222 3223 3223 3223 3224 3224 3224 3225 3225 3226 3226 3226 3226 3226 3226 3226 3226 3226 3226 3226 3226 3226 3226 3226 3226 3226 3225 3225 3225 3225 3225 3225 3225 3225 3225 3225 3225 3224 3224 3224 3224 3224 3224 3224 3224 3224 3225 3225 3225 3225 3225 3226 3226 3226 3226 3226 3226 3226 3226 3226 3226 3226
3198 3200 3202 3203 3206 3208 3209 3211 3212 3213 3214 3215 3217 3218 3219 3219 3220 3221 3221 3222 3222 3223 3223 3223 3223 3224 3224 3225 3225 3225 3226 3226 3226 3227 3227 3227 3227 3227 3227 3227 3227 3227 3227 3227 3226 3226 3226 3226 3226 3226 3226 3226 3225 3225 3225 3226 3226 3226 3226 3226 3225 3225 3225 3225 3225 3225 3225 3225 3225 3225 3226 3226 3226 3226 3227 3227 3227 3226 3227 3227 3227 3227 3227 3227 3227
3199 3201 3202 3203 3205 3207 3209 3210 3212 3213 3215 3216 3217 3218 3219 3220 3221 3221 3222 3222 3223 3223 3224 3224 3224 3224 3225 3225 3226 3226 3227 3227 3227 3227 3227 3227 3227 3228 3227 3227 3227 3227 3227 3227 3227 3227 3227 3227 3227 3226 3226 3226 3226 3226 3226 3226 3226 3226 3226 3226 3226 3226 3226 3226 3225 3225 3225 3226 3226 3226 3227 3227 3227 3227 3228 3228 3227 3227 3227 3227 3227 3227 3227 3227 3227
3199 3200 3202 3204 3205 3207 3209 3210 3212 3213 3215 3216 3218 3219 3219 3220 3221 3222 3222 3223 3223 3224 3224 3225 3225 3225 3226 3226 3227 3227 3227 3228 3228 3228 3228 3228 3228 3228 3228 3228 3228 3228 3228 3227 3227 3227 3227 3227 3227 3227 3227 3227 3227 3227 3227 3227 3227 3227 3227 3227 3226 3226 3226 3226 3226 3226 3226 3226 3226 3227 3227 3227 3228 3228 3228 3228 3228 3228 3228 3228 3228 3228 3228 3228 3227
3199 3200 3202 3204 3205 3207 3208 3210 3211 3213 3214 3216 3217 3219 3220 3220 3221 3222 3222 3223 3224 3224 3225 3225 3226 3226 3227 3227 3227 3228 3228 3228 3229 3229 3229 3228 3228 3228 3228 3228 3228 3228 3228 3228 3227 3227 3227 3227 3228 3227 3227 3227 3227 3227 3227 3228 3228 3228 3228 3228 3227 3227 3227 3226 3226 3226 3226 3226 3227 3227 3227 3228 3228 3228 3229 3229 3229 3229 3229 3229 3229 3229 3228 3228 3228
3199 3200 3202 3203 3205 3206 3208 3209 3211 3213 3214 3216 3217 3218 3219 3220 3221 3222 3223 3223 3224 3225 3225 3226 3226 3227 3228 3228 3228 3228 3229 3229 3229 3229 3229 3229 3229 3228 3228 3228 3228 3228 3228 3228 3228 3228 3228 3228 3228 3228 3228 3228 3228 3227 3227 3228 3228 3229 3228 3228 3228 3227 3227 3227 3227 3226 3226 3226 3227 3227 3228 3228 3229 3229 3229 3229 3230 3230 3230 3229 3229 3229 3229 3229 3228
3198 3200 3202 3203 3205 3206 3208 3209 3211 3212 3214 3215 3217 3218 3219 3220 3221 3222 3223 3223 3224 3225 3226 3226 3227 3228 3228 3228 3229 3229 3229 3229 3230 3230 3230 3230 3229 3229 3229 3229 3229 3229 3229 3229 3229 3228 3228 3228 3228 3228 3228 3228 3228 3228 3228 3228 3229 3229 3229 3229 3228 3227 3227 3227 3227 3227 3227 3227 3227 3228 3228 3229 3229 3229 3230 3230 3230 3230 3230 3230 3230 3230 3230 3230 3229
3198 3200 3201 3203 3205 3206 3207 3209 3210 3212 3213 3215 3217 3218 3219 3220 3221 3222 3223 3224 3224 3225 3226 3227 3228 3228 3228 3229 3229 3229 3229 3230 3230 3230 3231 3230 3230 3229 3229 3229 3229 3229 3229 3229 3229 3229 3229 3228 3228 3228 3228 3228 3228 3228 3228 3227 3228 3229 3229 3229 3228 3228 3227 3227 3228 3228 3227 3227 3228 3228 3229 3230 3230 3230 3230 3231 3231 3231 3231 3230 3230 3230 3230 3230 3230
3197 3199 3201 3203 3204 3205 3207 3209 3210 3211 3213 3214 3216 3217 3219 3220 3221 3222 3223 3224 3224 3225 3226 3227 3228 3228 3229 3229 3229 3229 3230 3230 3230 3231 3231 3231 3230 3230 3230 3230 3230 3230 3230 3230 3229 3229 3229 3228 3228 3228 3228 3228 3228 3228 3227 3227 3227 3227 3228 3228 3228 3228 3228 3228 3228 3228 3228 3228 3228 3229 3230 3230 3231 3231 3231 3231 3231 3231 3231 3231 3231 3231 3231 3231 3231
3196 3198 3200 3202 3203 3205 3207 3208 3210 3211 3212 3214 3215 3217 3218 3220 3221 3222 3223 3224 3225 3225 3226 3227 3228 3228 3229 3229 3229 3230 3230 3230 3230 3231 3231 3231 3231 3230 3230 3230 3230 3230 3230 3230 3230 3229 3229 3229 3229 3228 3229 3229 3228 3228 3227 3227 3226 3226 3227 3228 3228 3228 3228 3228 3228 3228 3228 3229 3229 3230 3231 3231 3231 3232 3231 3231 3232 3232 3231 3231 3231 3231 3231 3231 3231
3196 3198 3199 3201 3203 3205 3206 3208 3209 3210 3212 3213 3215 3216 3218 3219 3220 3221 3223 3223 3224 3225 3226 3227 3228 3228 3229 3229 3229 3230 3230 3230 3231 3231 3231 3231 3231 3231 3231 3231 3231 3231 3230 3230 3230 3230 3230 3229 3229 3229 3229 3229 3228 3228 3227 3227 3227 3226 3226 3227 3228 3228 3228 3228 3228 3228 3228 3229 3230 3231 3231 3231 3232 3232 3232 3232 3232 3232 3232 3232 3232 3232 3232 3232 3232
3195 3197 3198 3200 3202 3204 3205 3207 3208 3209 3211 3212 3214 3216 3217 3218 3220 3221 3222 3223 3224 3225 3226 3227 3228 3228 3229 3229 3229 3230 3230 3230 3231 3231 3232 3231 3231 3231 3231 3231 3231 3231 3231 3231 3231 3230 3230 3230 3230 3230 3230 3229 3229 3228 3228 3227 3227 3226 3226 3227 3227 3227 3228 3228 3228 3228 3229 3229 3231 3231 3231 3232 3232 3232 3232 3232 3232 3232 3232 3233 3233 3233 3232 3232 3232
3194 3196 3197 3199 3201 3203 3204 3206 3207 3209 3210 3211 3213 3215 3216 3218 3219 3221 3222 3223 3224 3225 3226 3227 3228 3228 3229 3229 3230 3230 3230 3231 3231 3231 3232 3231 3231 3232 3232 3232 3232 3232 3232 3232 3231 3231 3231 3230 3230 3230 3230 3230 3230 3229 3228 3228 3227 3226 3226 3226 3227 3228 3228 3228 3228 3228 3229 3230 3231 3231 3231 3232 3232 3232 3233 3233 3233 3233 3233 3233 3233 3233 3233 3233 3233
3193 3195 3197 3198 3200 3202 3203 3205 3207 3208 3209 3211 3212 3214 3216 3217 3219 3220 3222 3223 3224 3225 3226 3226 3227 3228 3229 3229 3229 3230 3230 3231 3231 3231 3231 3231 3231 3232 3232 3232 3232 3233 3233 3232 3232 3231 3231 3231 3231 3231 3230 3230 3230 3230 3229 3228 3227 3226 3226 3226 3227 3228 3228 3228 3228 3229 3229 3230 3231 3231 3231 3232 3232 3232 3233 3233 3233 3233 3233 3233 3233 3234 3234 3234 3234
3192 3194 3196 3197 3198 3200 3202 3204 3206 3207 3209 3210 3211 3213 3215 3216 3218 3219 3221 3222 3223 3224 3225 3226 3227 3227 3228 3229 3229 3230 3230 3231 3231 3231 3231 3231 3232 3232 3232 3233 3233 3233 3233 3233 3232 3232 3232 3232 3232 3231 3231 3230 3230 3230 3229 3229 3228 3227 3227 3227 3227 3228 3228 3228 3228 3229 3230 3231 3231 3231 3232 3232 3232 3233 3233 3233 3233 3233 3233 3233 3233 3234 3234 3234 3234
3191 3193 3195 3196 3198 3199 3201 3203 3205 3206 3208 3209 3210 3212 3214 3215 3217 3218 3219 3221 3222 3223 3224 3225 3226 3227 3228 3228 3229 3229 3230 3230 3231 3231 3231 3231 3232 3232 3232 3233 3233 3233 3233 3233 3233 3233 3233 3232 3232 3232 3231 3231 3230 3230 3229 3229 3228 3227 3227 3227 3227 3227 3227 3228 3229 3229 3230 3231 3231 3232 3232 3233 3233 3233 3233 3233 3233 3233 3233 3233 3233 3233 3233 3233 3233
3189 3191 3193 3195 3196 3198 3200 3201 3203 3204 3206 3208 3209 3210 3212 3214 3215 3217 3218 3219 3221 3222 3223 3225 3225 3226 3227 3228 3228 3229 3229 3230 3231 3231 3231 3232 3232 3232 3233 3233 3234 3234 3234 3234 3234 3234 3233 3233 3232 3232 3232 3232 3231 3230 3229 3229 3228 3227 3227 3227 3227 3227 3227 3228 3229 3229 3230 3231 3231 3232 3232 3233 3233 3233 3233 3233 3233 3233 3233 3234 3233 3233 3233 3233 3233
3187 3189 3191 3193 3194 3196 3197 3199 3201 3203 3204 3206 3207 3209 3210 3212 3213 3215 3216 3218 3219 3221 3223 3224 3225 3225 3226 3227 3228 3228 3229 3229 3230 3231 3231 3232 3232 3233 3233 3234 3234 3234 3234 3234 3234 3234 3234 3233 3233 3233 3232 3232 3231 3230 3230 3229 3229 3228 3227 3227 3227 3227 3228 3229 3229 3229 3230 3231 3231 3232 3232 3233 3233 3232 3232 3232 3232 3233 3233 3233 3233 3233 3233 3233 3232
3185 3187 3189 3191 3193 3194 3195 3197 3200 3201 3202 3204 3206 3207 3209 3211 3212 3214 3215 3217 3219 3220 3222 3223 3224 3225 3225 3226 3227 3228 3228 3229 3230 3231 3231 3232 3232 3233 3233 3234 3234 3234 3234 3234 3234 3235 3234 3234 3234 3233 3233 3232 3231 3231 3231 3230 3230 3229 3228 3227 3227 3227 3228 3228 3229 3229 3230 3231 3232 3232 3233 3232 3232 3232 3232 3231 3231 3232 3233 3233 3233 3232 3232 3232 3232
3183 3185 3187 3189 3191 3192 3194 3196 3198 3199 3201 3203 3205 3206 3208 3210 3212 3214 3215 3217 3218 3220 3221 3223 3224 3224 3225 3226 3226 3227 3228 3229 3229 3230 3231 3231 3232 3232 3233 3233 3234 3234 3234 3234 3235 3235 3235 3235 3234 3234 3233 3233 3231 3231 3231 3231 3230 3230 3229 3228 3227 3227 3227 3228 3228 3229 3231 3232 3232 3233 3233 3232 3232 3232 3232 3231 3231 3232 3232 3232 3232 3232 3231 3231 3231
3182 3183 3185 3187 3189 3191 3192 3194 3196 3198 3200 3202 3204 3206 3208 3210 3211 3213 3215 3216 3217 3219 3220 3221 3223 3223 3224 3225 3226 3227 3228 3228 3229 3230 3231 3231 3231 3232 3232 3233 3234 3234 3234 3235 3235 3235 3235 3235 3234 3234 3234 3233 3232 3232 3232 3231 3231 3230 3230 3229 3228 3228 3228 3228 3228 3229 3230 3231 3232 3233 3233 3233 3233 3233 3232 3231 3232 3232 3232 3232 3232 3231 3231 3231 3231
3179 3181 3183 3185 3187 3189 3190 3192 3194 3196 3198 3201 3203 3204 3206 3208 3210 3212 3213 3215 3216 3217 3218 3219 3221 3222 3223 3224 3225 3226 3227 3228 3229 3230 3230 3231 3231 3232 3232 3233 3234 3234 3234 3235 3235 3235 3235 3235 3235 3234 3234 3233 3233 3233 3233 3232 3231 3231 3230 3230 3230 3229 3229 3229 3229 3229 3230 3231 3231 3232 3233 3233 3233 3233 3232 3232 3232 3232 3232 3232 3231 3231 3231 3231 3231
3176 3179 3181 3182 3184 3187 3189 3191 3192 3194 3197 3199 3201 3203 3204 3205 3207 3209 3210 3211 3213 3214 3215 3217 3220 3221 3222 3224 3225 3226 3227 3228 3228 3229 3230 3231 3231 3231 3232 3233 3234 3234 3234 3235 3235 3235 3235 3235 3235 3234 3234 3234 3234 3234 3234 3233 3232 3232 3231 3231 3231 3230 3230 3230 3230 3230 3231 3231 3231 3232 3233 3233 3233 3233 3232 3233 3233 3233 3232 3232 3232 3232 3231 3231 3231
3174 3177 3179 3181 3183 3185 3187 3189 3191 3192 3195 3198 3200 3201 3202 3203 3205 3206 3207 3209 3210 3212 3215 3217 3219 3221 3222 3223 3224 3225 3226 3227 3228 3229 3229 3230 3231 3231 3232 3233 3233 3234 3234 3234 3235 3235 3235 3235 3235 3235 3235 3235 3235 3235 3234 3234 3233 3233 3232 3232 3231 3231 3231 3231 3231 3231 3231 3231 3231 3232 3232 3233 3233 3233 3233 3233 3233 3233 3233 3232 3232 3232 3232 3232 3231
3172 3175 3177 3179 3181 3183 3185 3187 3189 3191 3193 3195 3198 3199 3200 3202 3203 3205 3207 3209 3210 3213 3215 3217 3219 3220 3221 3222 3223 3224 3225 3226 3227 3228 3229 3230 3231 3231 3232 3232 3233 3233 3234 3234 3234 3235 3235 3235 3235 3235 3236 3236 3236 3236 3235 3235 3235 3234 3233 3233 3232 3233 3232 3232 3232 3232 3232 3232 3232 3232 3232 3233 3233 3233 3233 3233 3233 3233 3233 3233 3233 3232 3232 3232 3232
3170 3173 3175 3176 3178 3181 3183 3185 3187 3189 3191 3193 3195 3197 3199 3200 3202 3204 3206 3208 3210 3213 3215 3216 3217 3219 3220 3221 3222 3223 3224 3225 3226 3227 3228 3229 3230 3231 3231 3232 3232 3233 3234 3234 3234 3235 3235 3235 3235 3236 3236 3237 3237 3237 3236 3236 3236 3235 3235 3234 3234 3234 3233 3233 3233 3233 3233 3233 3233 3233 3233 3233 3233 3233 3233 3233 3233 3233 3233 3233 3233 3232 3232 3232 3232
3168 3170 3173 3175 3176 3179 3181 3183 3185 3187 3189 3191 3193 3195 3198 3199 3201 3202 3204 3206 3209 3211 3213 3214 3215 3217 3218 3219 3220 3221 3223 3224 3225 3226 3227 3228 3229 3230 3231 3231 3232 3233 3234 3234 3234 3235 3235 3235 3236 3236 3237 3237 3237 3237 3237 3237 3237 3236 3236 3236 3236 3235 3235 3235 3234 3234 3234 3234 3233 3233 3233 3234 3234 3234 3234 3233 3233 3233 3233 3234 3233 3233 3232 3232 3232
3167 3169 3171 3173 3175 3176 3178 3180 3182 3184 3186 3188 3191 3193 3196 3197 3199 3201 3203 3205 3207 3209 3210 3212 3213 3215 3216 3218 3219 3220 3221 3222 3223 3224 3225 3226 3227 3228 3230 3230 3231 3232 3233 3234 3234 3235 3235 3235 3236 3236 3237 3237 3238 3238 3238 3238 3238 3238 3237 3237 3237 3236 3236 3236 3236 3235 3235 3234 3234 3234 3234 3234 3235 3235 3234 3234 3233 3233 3234 3234 3234 3233 3233 3232 3232
3165 3167 3168 3170 3172 3174 3176 3178 3180 3182 3184 3186 3188 3191 3193 3195 3197 3199 3201 3203 3205 3207 3208 3210 3211 3213 3215 3216 3218 3219 3220 3221 3222 3223 3224 3225 3226 3227 3229 3229 3230 3231 3232 3233 3234 3234 3235 3235 3236 3236 3237 3237 3238 3238 3238 3239 3239 3239 3238 3238 3238 3237 3237 3237 3237 3236 3236 3236 3236 3235 3235 3235 3235 3235 3235 3234 3233 3234 3234 3234 3234 3234 3233 3232 3232
Wind_Speed
33 31 31 31 30 30 28 27 26 24 23 21 20 19 19 18 18 17 17 17 17 17 17 17 16 16 16 16 17 18 18 17 17 17 16 15 14 12 11 9 7 4 3 4 5 6 6 7 7 6 6 6 6 6 6 6 6 7 8 8 9 10 10 9 9 8 7 6 5 5 5 5 6 6 7 6 7 7 6 5 5 4 3 3 3
33 32 32 31 31 31 29 27 25 24 22 21 20 19 19 18 18 17 17 17 17 17 17 17 16 16 16 16 17 18 17 16 16 15 14 13 11 10 8 7 5 4 4 5 6 6 7 7 7 7 7 7 7 7 8 8 9 10 11 12 13 13 12 11 10 8 7 6 5 5 5 5 5 6 6 6 7 7 7 6 6 5 4 4 3
32 33 33 32 32 31 29 26 24 23 21 20 20 19 18 18 18 18 17 17 17 17 17 17 16 16 15 16 16 16 15 15 14 13 12 10 9 8 7 6 5 5 6 6 7 7 8 7 7 7 7 8 8 9 10 11 11 11 12 13 13 12 11 11 10 8 7 6 5 5 5 4 5 5 6 6 7 6 7 7 7 6 5 4 4
32 34 33 33 32 30 28 26 24 22 21 20 19 18 18 18 18 18 18 17 17 17 17 16 16 15 15 15 15 14 14 13 12 11 10 9 8 7 7 7 7 7 7 7 8 8 8 8 7 8 8 8 9 10 12 12 12 12 13 13 12 11 11 10 9 8 6 6 5 5 5 5 5 5 6 6 6 6 6 6 7 7 6 5 4
32 34 34 33 31 29 27 25 23 22 21 20 19 18 18 19 18 18 18 17 17 17 16 16 16 15 14 14 14 14 13 12 12 11 10 9 8 9 9 10 10 9 9 9 9 9 8 8 8 8 8 9 10 11 12 12 12 13 13 13 12 11 11 10 8 7 6 6 5 5 5 5 5 5 5 5 7 7 6 6 7 7 6 5 4
33 34 34 33 31 29 27 24 22 21 20 19 19 19 19 19 19 18 18 17 16 16 15 15 15 14 14 13 13 13 13 12 12 11 10 10 11 11 12 12 12 11 11 10 10 9 9 9 9 9 9 10 11 12 12 12 12 13 12 12 11 11 11 10 9 7 7 7 7 6 5 5 5 4 5 6 6 7 7 7 6 6 6 5 4
33 33 33 31 29 28 26 24 22 21 20 19 19 19 19 19 19 18 17 16 16 15 14 14 14 14 13 13 13 13 13 13 12 12 12 12 13 13 13 13 12 12 12 11 11 10 9 10 10 10 10 11 12 12 12 13 13 12 11 11 10 10 10 10 9 8 7 8 8 7 6 6 6 5 5 7 7 7 7 7 7 7 6 5 5
33 32 32 30 28 27 25 23 22 21 19 19 18 18 19 19 18 17 17 15 15 15 14 14 14 14 14 14 14 14 14 14 14 13 13 13 14 13 13 13 13 13 12 12 11 11 11 10 10 10 10 12 13 13 13 13 13 12 11 10 10 10 10 10 9 8 8 8 8 8 8 8 8 7 6 8 9 9 9 10 9 8 7 7 7
33 32 30 29 27 26 24 23 21 20 19 18 18 18 19 18 18 17 16 15 15 14 14 14 14 14 14 15 15 15 15 15 15 14 14 14 14 14 14 14 14 13 13 12 12 12 11 11 10 10 10 11 13 13 13 13 13 12 12 11 11 11 11 10 9 9 9 9 9 9 9 9 9 9 8 9 9 10 10 10 10 10 10 10 11
32 31 30 28 26 24 23 22 20 19 18 18 18 19 19 18 17 16 15 15 15 14 14 14 14 15 15 16 16 16 16 16 15 15 15 15 15 15 14 14 14 14 13 13 13 12 11 11 10 10 10 11 12 13 13 13 13 12 12 12 12 11 11 11 10 9 9 9 9 10 10 10 10 9 10 10 10 10 10 9 9 10 12 11 12
32 31 29 27 25 23 22 21 19 18 18 19 19 19 19 18 17 16 15 15 14 15 15 15 15 15 16 16 16 16 16 16 16 16 16 15 15 14 14 14 14 14 14 13 13 12 12 11 11 10 10 11 11 13 13 13 12 12 12 12 12 11 11 11 10 9 9 9 9 10 10 10 10 9 10 10 10 11 10 9 8 8 9 9 11
32 30 28 26 24 22 21 20 19 18 19 21 21 20 20 18 17 16 15 15 15 15 15 15 15 15 16 16 16 16 16 16 16 16 15 15 14 14 13 14 14 14 14 14 13 13 12 11 11 10 10 10 11 11 12 13 12 12 12 11 11 12 11 10 9 9 9 9 9 9 10 10 10 9 10 10 10 10 9 9 8 7 7 8 9
32 30 28 25 23 21 20 19 18 19 21 22 22 21 20 18 17 16 16 15 15 15 15 16 15 15 15 15 16 16 16 16 16 15 14 14 14 14 14 14 14 14 14 14 14 13 12 12 11 10 10 10 10 10 10 11 12 11 11 11 11 12 12 10 9 9 9 8 8 9 9 9 9 9 9 9 9 9 7 7 6 7 7 8 9
31 30 27 25 23 21 20 19 19 21 23 23 22 21 20 18 17 17 17 17 16 16 16 16 16 16 16 15 16 16 16 15 15 15 14 14 14 15 15 15 14 14 14 13 13 12 12 11 11 10 10 10 9 9 9 10 11 11 10 10 11 11 11 11 9 8 8 8 8 8 8 9 9 9 8 8 8 8 7 7 6 7 8 9 10
29 29 27 25 22 21 20 19 20 22 23 23 22 21 19 18 18 18 18 18 17 17 17 16 16 16 16 16 16 15 15 15 15 15 15 15 15 15 15 15 14 13 13 12 11 11 11 11 11 11 10 10 9 9 9 10 10 10 10 9 10 11 11 11 9 8 8 8 8 7 8 8 8 8 8 7 7 7 8 8 7 8 9 10 10
28 27 26 24 22 21 20 20 22 23 23 23 22 21 20 19 19 19 19 18 17 17 17 17 17 16 16 16 15 16 15 15 15 14 15 15 15 15 15 14 14 13 12 11 11 11 11 11 11 11 11 10 10 8 9 10 10 10 10 10 11 11 11 11 10 9 9 9 8 7 8 8 6 6 7 7 7 7 7 8 8 8 9 10 10
28 26 25 23 21 20 20 21 23 24 24 23 22 21 20 20 19 19 18 17 16 16 16 16 16 16 16 15 15 16 15 15 14 14 15 15 15 14 14 14 13 13 13 12 12 11 11 11 12 12 12 12 12 10 10 11 11 11 11 12 12 11 11 11 10 10 9 9 9 9 9 8 7 6 7 8 8 7 7 7 7 7 8 9 9
28 26 24 22 21 20 20 21 24 25 24 23 23 22 20 20 19 18 17 16 16 15 15 15 15 14 14 14 14 15 15 14 13 13 14 15 14 14 14 13 13 14 14 13 13 12 12 12 13 13 14 15 14 12 12 12 12 12 12 12 12 11 12 11 10 9 9 9 9 9 10 10 9 8 8 9 9 8 7 6 6 6 6 7 8
27 26 24 22 20 20 19 21 23 24 23 23 23 22 21 20 19 17 16 15 15 15 14 14 14 13 13 13 13 14 13 12 12 13 14 14 14 14 14 13 13 14 14 14 13 12 12 12 13 14 15 15 14 14 13 13 13 13 13 12 11 11 11 11 10 9 9 9 10 10 10 11 11 9 9 10 10 9 8 7 6 5 4 5 6
27 26 24 22 20 19 19 20 23 24 23 23 22 21 21 19 18 17 15 14 14 14 13 12 12 12 12 12 13 13 12 12 13 14 14 13 13 14 13 13 13 14 13 13 13 12 12 12 12 13 13 14 14 14 13 13 13 13 12 11 11 11 11 11 10 9 9 9 9 9 9 10 11 10 9 10 10 10 9 8 7 5 4 4 4
28 27 24 22 20 19 18 19 22 23 23 22 22 21 20 19 18 16 15 14 13 13 12 11 10 10 11 12 13 13 13 14 14 14 13 13 13 13 13 12 12 12 12 12 12 12 12 12 12 11 12 12 12 13 12 13 13 12 12 11 10 11 11 11 10 9 10 9 9 8 8 9 10 10 9 9 9 9 10 9 8 7 5 4 4
28 28 25 23 21 19 18 19 21 23 22 22 21 20 19 18 17 16 15 14 13 12 11 10 10 10 11 12 13 14 15 15 15 14 13 13 13 13 12 11 11 11 11 11 11 10 11 11 11 11 11 11 11 11 12 12 12 12 12 12 11 11 11 10 10 9 9 9 9 8 7 7 8 9 8 8 8 9 9 9 8 7 6 5 5
28 28 26 24 22 20 19 19 20 22 22 21 20 19 18 18 17 16 15 14 13 12 11 10 9 10 11 13 14 15 15 15 14 14 13 13 12 12 11 10 9 10 10 9 8 8 9 9 10 10 10 10 10 10 11 11 11 11 11 12 12 11 10 10 10 9 9 9 8 7 7 7 7 7 7 7 8 9 9 8 7 7 6 6 5
26 26 25 24 23 21 20 19 20 20 21 21 20 19 18 17 17 16 15 14 12 11 10 9 9 10 11 13 14 15 15 14 13 13 13 12 11 10 10 9 9 9 9 8 7 7 8 8 8 9 9 9 9 9 10 10 10 10 9 10 11 11 10 10 9 8 8 7 7 6 6 6 6 6 6 6 7 8 8 8 8 7 7 6 6
24 24 24 24 23 22 21 20 20 20 20 20 19 18 18 17 16 16 14 13 12 11 10 9 9 10 11 12 13 14 14 13 13 12 12 11 10 9 8 8 8 7 8 8 7 6 7 8 8 8 8 8 9 9 9 9 9 9 8 8 9 10 9 9 9 9 8 7 6 6 6 6 5 5 5 5 6 7 8 7 8 8 7 7 6
24 23 23 23 23 22 21 21 20 20 20 19 19 18 17 17 16 15 14 13 11 10 9 9 9 10 11 12 12 13 13 13 12 11 11 10 10 9 8 7 7 7 7 7 7 7 7 8 8 7 8 8 8 9 9 8 9 8 7 7 7 9 8 9 10 9 9 8 7 7 6 6 6 5 4 4 5 6 7 7 7 7 7 7 6
22 22 22 22 22 22 21 21 21 20 20 20 19 18 17 17 16 15 14 13 11 10 9 10 10 10 11 12 12 12 12 11 10 10 10 9 9 9 8 7 7 7 7 6 6 7 7 7 7 7 7 7 7 7 7 7 8 7 6 5 6 7 7 8 9 10 10 9 8 8 8 7 7 6 4 4 5 5 5 6 6 6 7 7 7
21 21 22 22 21 22 21 21 21 20 20 20 19 19 18 17 16 15 14 13 11 10 10 10 10 11 11 11 11 11 11 10 10 9 9 9 9 9 9 8 7 7 6 6 5 5 5 6 7 7 7 7 7 7 6 6 6 6 6 5 5 5 6 7 8 9 10 9 8 8 8 7 7 6 5 4 4 4 5 5 6 6 6 7 7
21 21 22 22 21 21 21 21 21 21 20 20 19 19 18 17 16 15 14 12 11 10 10 11 11 11 11 11 11 11 11 10 10 9 9 9 10 9 8 7 7 6 6 6 5 5 6 6 6 7 7 7 7 6 6 5 5 5 6 6 5 5 6 7 9 9 10 10 9 9 8 7 6 6 6 5 5 5 5 5 5 5 6 6 7
20 21 21 21 21 20 20 21 21 21 20 20 19 19 18 17 16 15 14 12 11 10 11 11 11 11 11 11 10 10 11 10 10 10 8 8 9 9 8 7 6 6 6 6 6 6 5 6 6 6 7 7 7 6 5 4 4 5 6 6 6 6 7 7 9 9 10 11 10 9 9 7 6 6 6 6 6 6 6 6 6 5 5 5 6
20 22 22 21 21 20 20 20 21 21 21 20 19 19 18 17 16 15 14 13 12 11 11 11 12 12 11 10 9 9 10 10 10 10 9 8 8 8 7 6 6 5 5 6 6 7 6 6 7 6 6 6 6 6 5 5 5 5 6 6 6 7 8 8 10 10 10 10 10 10 8 7 5 5 6 6 6 6 6 6 6 5 5 5 5
21 21 22 22 21 20 20 21 21 21 21 20 20 19 18 17 16 15 14 14 12 11 11 11 12 13 11 10 9 9 9 9 10 9 9 8 7 7 7 6 6 5 6 6 6 6 6 7 7 7 6 6 6 6 5 5 5 6 6 5 6 8 8 9 11 11 10 10 9 9 8 7 5 4 5 6 6 6 6 6 6 5 5 5 5
20 21 22 22 21 21 21 21 22 21 21 20 20 19 18 17 16 15 14 14 13 11 11 11 11 12 11 10 10 9 8 8 8 8 8 8 7 6 6 6 6 5 6 6 6 6 6 6 6 6 6 6 7 6 5 5 5 5 5 6 7 9 9 9 11 12 11 10 9 9 8 7 7 5 5 5 5 5 5 5 5 5 5 5 5
20 21 22 22 21 22 22 22 23 22 21 20 20 19 19 18 16 15 15 14 13 12 12 12 11 11 11 11 10 9 8 8 7 7 7 7 6 6 6 6 5 5 5 5 5 6 5 6 6 5 5 6 6 5 4 4 4 4 5 7 7 9 8 7 9 12 12 10 8 8 9 8 7 6 5 5 5 5 5 5 5 5 5 5 5
21 21 22 21 21 22 22 22 23 22 22 21 20 19 18 18 17 16 16 15 14 13 12 12 11 12 12 11 11 9 8 8 7 7 7 6 6 6 6 6 4 4 4 4 5 5 5 5 5 5 5 6 5 4 3 4 3 4 6 7 7 7 5 4 8 10 10 9 8 8 8 7 6 6 5 5 4 4 4 4 4 5 5 5 4
21 20 21 22 22 22 21 22 22 22 22 21 20 19 18 18 17 16 16 15 14 13 12 11 11 12 12 12 11 10 9 8 7 6 6 5 5 5 5 5 5 4 4 4 5 5 5 5 5 5 5 5 4 4 3 3 3 4 6 7 6 5 5 3 7 8 8 7 7 7 6 6 6 6 5 5 4 3 4 4 4 4 4 4 3
20 19 21 22 21 22 21 21 22 21 22 22 20 19 19 18 18 17 16 15 14 14 13 11 11 11 11 12 11 10 10 9 8 6 5 4 4 4 5 5 4 4 4 5 5 4 4 4 5 5 5 4 3 3 3 4 4 5 5 5 5 5 6 6 7 7 7 6 6 6 5 5 5 5 5 4 3 3 4 5 4 3 3 3 2
19 19 19 21 21 21 21 21 21 21 22 22 21 19 19 19 19 18 16 16 15 14 13 12 12 11 10 11 11 10 9 9 8 7 6 6 5 4 4 5 4 4 4 5 5 4 4 5 6 5 5 4 3 3 3 3 4 5 5 4 4 5 7 7 7 8 8 7 6 5 4 3 3 3 3 3 3 3 4 5 4 4 3 3 2
20 20 20 21 22 21 21 22 22 22 22 22 22 21 21 21 20 19 18 17 16 16 15 14 13 12 11 11 11 10 9 9 8 7 7 7 5 4 4 5 5 5 5 5 5 5 5 6 5 5 6 6 5 5 4 4 3 3 4 3 3 4 6 6 6 8 8 7 5 3 2 1 1 1 1 1 2 2 3 3 3 3 3 2 2
21 21 21 21 22 22 22 22 22 22 23 23 24 23 22 22 21 20 19 18 17 16 15 14 14 13 12 11 11 11 10 9 9 8 8 7 5 5 4 5 5 4 4 5 5 6 6 6 5 6 7 7 8 7 5 3 2 2 3 3 3 3 4 5 5 7 7 6 4 1 2 2 1 3 3 3 3 2 2 2 2 2 1 2 2
24 23 23 22 21 22 23 22 22 23 23 23 23 22 21 21 20 20 19 18 16 16 16 15 14 14 13 11 11 11 11 10 9 9 9 8 6 5 4 4 4 4 4 5 5 5 5 6 5 7 8 8 9 9 6 4 2 1 2 3 3 2 3 4 5 6 6 5 4 2 3 2 1 2 1 3 3 3 2 1 1 1 1 1 2
25 25 23 22 21 22 23 22 23 22 22 22 21 20 19 18 17 17 17 17 17 16 16 15 15 14 13 12 11 11 11 10 10 9 9 8 7 6 5 4 4 4 4 5 5 5 5 6 6 7 9 9 11 11 8 6 4 3 1 2 2 2 4 3 5 7 7 7 5 5 5 3 0 3 5 4 4 4 3 2 1 3 2 1 2
24 25 24 24 22 22 23 24 24 22 20 21 20 18 17 17 16 16 16 17 17 17 17 17 17 16 14 13 12 12 11 10 10 9 9 8 8 7 5 4 4 4 5 5 5 6 6 6 7 8 8 9 11 12 11 9 7 5 3 2 2 4 5 5 5 6 8 8 7 8 7 4 4 7 9 9 8 7 6 5 4 5 6 5 3
25 26 26 26 24 23 23 24 24 23 21 19 19 18 18 18 18 18 18 18 18 19 19 20 19 18 16 14 13 12 11 11 10 9 9 9 8 7 6 5 4 4 6 7 7 7 7 7 8 8 9 10 12 13 12 11 10 8 6 4 4 7 7 6 5 4 8 8 6 6 6 6 8 8 9 9 7 7 7 5 5 7 8 8 8
26 26 27 25 24 23 22 23 24 23 21 19 19 20 20 21 21 22 23 23 23 23 23 22 20 19 17 15 13 13 12 11 10 10 10 10 9 8 7 6 5 5 6 8 7 7 8 7 8 9 9 10 12 13 11 11 11 10 10 7 7 9 8 7 6 4 6 8 6 6 6 8 8 7 7 7 7 7 6 5 5 6 7 8 8
26 25 25 24 22 22 22 22 23 24 22 20 21 21 20 21 23 24 25 26 25 24 23 21 18 17 16 15 14 14 13 12 11 11 11 10 10 10 8 7 6 5 6 8 8 8 8 8 9 9 10 10 11 12 11 10 10 11 11 10 8 9 8 7 6 6 7 8 7 6 6 9 8 6 6 6 6 7 6 5 5 6 7 7 8
26 25 24 24 23 22 22 22 23 24 23 21 22 21 21 21 22 23 23 23 22 20 19 18 17 16 15 15 15 14 14 13 12 12 12 12 11 11 9 8 7 6 7 8 8 8 8 9 10 9 9 10 11 11 10 10 9 10 11 11 10 9 9 8 6 8 9 8 7 6 7 9 8 8 8 7 6 6 5 5 5 5 6 7 7
26 26 26 25 25 23 22 22 23 24 24 22 22 22 21 20 20 21 22 21 20 17 17 18 18 18 17 17 16 15 14 14 14 13 13 13 13 12 11 10 8 7 7 8 9 8 8 8 9 10 9 9 10 10 10 9 9 9 10 11 11 10 10 9 8 8 9 8 7 7 8 9 9 8 7 8 7 5 5 5 5 4 4 5 6
25 26 26 25 25 23 22 23 24 24 24 23 22 22 20 19 20 20 21 21 20 20 20 20 20 19 19 19 18 17 16 15 15 15 15 15 14 13 12 11 9 8 8 9 9 9 9 8 9 10 10 9 8 8 8 8 8 8 8 10 11 11 10 10 10 9 9 8 7 7 8 9 9 7 7 7 6 5 4 4 5 4 3 4 5
23 23 25 26 26 25 24 24 24 25 25 24 23 22 21 21 21 21 21 21 22 22 22 22 21 20 20 20 20 18 17 17 16 16 15 15 16 15 14 13 11 10 9 9 9 9 9 9 9 10 10 9 7 7 7 7 8 8 8 8 9 11 11 10 10 10 10 10 8 7 8 9 9 8 7 8 6 4 4 4 5 4 2 3 4
22 23 25 27 28 27 25 24 24 25 25 25 24 23 23 22 22 21 21 22 22 22 23 22 21 20 20 20 20 19 19 18 17 16 16 16 17 16 16 15 13 11 9 8 9 9 10 9 8 9 9 9 7 6 6 6 7 8 8 9 9 10 11 11 11 10 10 10 9 9 8 9 9 8 8 8 7 5 4 3 3 3 2 4 5
Wind_Direction
145 143 140 141 139 137 137 137 135 135 133 132 131 130 131 129 128 126 125 123 123 122 121 118 114 112 114 119 120 119 118 120 122 124 126 128 132 136 142 148 154 159 142 123 120 122 121 118 114 104 94 85 77 81 88 89 93 97 97 98 108 121 122 120 130 149 166 171 172 178 178 186 192 192 193 190 188 186 185 185 176 165 166 161 129
144 142 141 142 139 138 138 137 137 135 134 133 132 132 131 130 128 126 123 121 121 121 119 116 115 116 119 122 120 119 120 122 123 125 129 132 138 143 150 157 164 157 131 119 114 113 113 111 106 97 87 79 70 81 90 87 91 95 92 94 99 109 115 114 119 131 143 148 152 162 163 166 175 178 178 178 179 178 179 178 174 171 172 163 141
145 143 142 142 140 139 139 138 138 136 135 133 132 132 132 131 130 126 123 122 121 119 118 118 119 123 124 123 121 122 124 125 126 128 131 136 141 146 153 155 148 131 118 116 113 109 109 107 100 88 79 72 67 81 89 86 90 93 93 95 97 103 106 107 112 118 124 134 138 146 149 152 159 166 169 170 166 167 177 174 174 174 174 170 154
146 144 143 142 141 141 139 139 138 137 135 134 133 133 134 133 131 128 125 124 122 121 120 122 124 127 127 125 125 126 127 127 128 129 131 133 134 137 137 132 122 114 112 113 113 112 112 107 96 85 77 67 66 81 89 89 92 93 93 95 97 99 99 98 104 111 122 133 134 136 137 141 149 154 156 155 146 153 171 167 171 173 172 178 170
147 145 144 143 143 142 140 140 138 137 135 134 135 135 137 136 133 131 129 126 124 123 124 125 126 128 127 127 127 126 126 126 126 128 128 126 122 120 118 114 109 106 107 111 115 116 113 104 94 86 79 67 69 83 90 91 93 93 93 95 98 99 99 101 104 109 117 123 123 123 123 128 134 143 143 141 138 141 153 157 164 163 162 172 172
150 148 145 145 144 142 141 140 138 136 136 134 136 138 139 138 136 134 131 128 126 126 128 128 127 127 126 126 127 126 127 126 127 126 123 119 115 113 111 108 105 105 107 111 116 117 112 102 94 87 81 72 75 88 92 94 93 92 94 96 99 101 104 106 106 106 108 109 105 100 98 103 109 127 133 135 138 135 140 144 145 147 152 155 153
151 150 147 146 145 143 141 139 138 136 136 136 138 141 142 140 139 136 133 131 130 131 131 130 128 126 125 125 125 126 127 126 124 122 119 115 112 111 108 105 104 105 107 109 113 114 109 102 96 90 85 78 81 92 95 95 95 95 97 100 103 104 105 104 102 101 100 96 91 85 80 84 90 104 125 133 136 133 136 135 131 138 146 139 129
152 151 148 147 146 142 141 139 138 136 136 138 141 143 143 142 140 137 135 135 134 134 133 131 128 125 125 124 123 124 124 123 121 119 117 114 111 109 106 102 101 103 106 107 109 110 107 103 99 94 89 83 83 91 96 96 95 96 98 102 105 105 102 99 98 98 94 87 84 85 84 85 85 87 108 130 136 135 134 133 136 140 138 131 127
153 152 149 148 146 143 141 139 138 137 139 141 143 144 143 143 141 140 140 140 138 136 134 131 128 126 124 123 122 122 122 120 119 117 115 113 110 107 104 100 99 102 105 105 105 105 106 105 102 97 92 87 84 87 92 95 94 93 94 98 102 104 104 101 100 97 92 87 86 86 87 87 84 82 91 114 131 135 134 134 142 142 140 143 142
154 152 150 149 147 143 140 138 139 139 142 143 144 144 143 143 142 143 144 143 140 138 136 132 129 126 122 120 120 121 120 119 118 116 114 111 108 105 102 99 99 101 103 103 102 102 103 104 103 101 95 88 86 86 88 91 92 91 91 94 97 101 104 104 103 100 98 94 92 88 88 86 82 83 87 98 116 125 128 135 142 139 140 144 140
155 153 151 150 148 144 141 140 141 142 143 144 143 143 141 141 142 143 144 142 139 137 136 134 131 125 122 120 120 119 118 118 116 113 111 109 107 104 101 99 99 101 101 101 100 100 101 104 105 104 98 89 85 85 88 91 92 90 90 91 93 96 101 105 106 104 104 103 98 91 86 84 81 84 88 93 101 109 121 134 139 133 129 126 122
156 154 153 151 149 146 144 143 142 143 144 143 143 141 140 139 139 140 139 138 137 137 136 135 131 125 122 121 120 118 117 116 114 111 109 108 106 103 101 100 99 99 99 98 97 98 99 100 104 104 99 92 86 85 90 96 96 93 92 94 94 95 101 107 109 106 107 109 102 93 85 80 77 82 90 93 94 104 122 137 138 133 129 124 121
157 155 155 151 150 149 146 144 143 144 144 143 142 139 138 136 136 137 135 134 134 135 135 133 129 125 123 123 121 118 117 116 114 112 109 107 105 104 102 99 98 97 95 95 93 93 94 95 97 99 98 93 89 87 90 94 96 94 93 96 95 95 100 104 106 108 110 110 104 97 86 77 75 79 89 93 92 99 118 133 138 141 138 135 132
160 157 156 154 153 151 147 144 144 146 145 143 140 138 136 135 136 133 131 130 130 131 130 129 126 125 125 125 123 121 120 119 117 115 112 109 107 105 103 100 96 95 92 91 91 91 92 94 95 97 96 94 91 89 88 89 92 94 95 96 95 96 98 99 101 107 110 106 102 96 84 80 78 75 83 94 94 96 106 114 121 133 131 130 133
162 159 158 157 156 153 148 146 147 147 145 143 140 138 137 136 135 131 129 127 127 126 125 125 125 126 126 127 126 125 124 123 121 117 114 110 108 106 103 100 97 95 93 91 92 93 94 95 99 100 98 95 93 92 89 89 90 93 97 97 96 98 99 99 99 103 105 102 98 90 80 80 77 72 78 92 101 103 102 102 105 115 122 127 132
163 162 162 160 159 156 151 148 149 148 145 143 140 139 138 138 134 130 128 126 125 124 123 123 124 126 128 128 127 127 127 127 124 119 114 110 107 106 103 100 98 96 93 92 93 93 92 92 96 99 98 95 94 93 90 88 88 90 94 96 96 98 100 98 98 100 100 99 96 90 82 77 72 72 81 91 103 108 101 100 101 106 116 122 126
165 166 165 162 161 158 154 151 151 150 147 144 141 140 140 138 134 131 129 126 124 123 124 124 125 127 128 127 127 127 129 128 125 118 113 111 108 106 103 100 98 95 92 91 91 91 90 88 90 94 95 94 92 91 89 88 88 90 93 93 93 95 97 97 97 98 96 94 93 88 80 73 71 77 88 93 102 108 103 101 102 104 112 117 119
167 168 167 166 163 160 157 153 153 152 149 147 143 142 142 139 136 133 130 126 123 122 122 124 126 129 130 128 125 126 128 128 124 117 113 112 110 106 102 100 97 94 92 91 91 93 92 91 91 94 96 96 94 92 88 88 90 91 91 91 93 94 94 96 98 99 97 94 88 81 72 67 69 78 87 90 95 100 100 103 106 109 114 117 119
169 170 169 168 166 162 159 156 155 154 151 148 145 144 144 142 139 136 133 130 125 122 120 120 123 126 130 130 127 126 128 130 123 116 115 113 109 105 103 100 96 93 93 93 93 92 92 93 93 94 95 94 94 93 90 87 87 87 86 87 90 93 92 92 94 95 94 90 84 77 67 61 64 75 85 86 89 93 95 101 107 115 122 122 123
172 172 171 170 168 164 160 158 158 156 153 150 147 147 147 145 143 140 138 135 130 124 120 117 118 121 126 131 131 130 130 128 123 118 117 114 109 107 105 99 94 91 91 91 92 92 91 90 89 88 88 87 87 88 88 87 86 84 84 85 86 87 88 88 89 90 87 83 78 73 66 59 59 69 83 89 92 93 94 97 103 116 132 140 143
174 174 173 173 170 167 162 160 160 158 155 152 150 150 150 148 145 143 141 139 134 128 122 118 116 117 122 128 131 130 129 126 123 122 119 116 112 108 104 98 93 89 88 89 91 93 94 91 89 88 86 85 84 83 82 81 84 85 83 83 81 80 82 84 87 89 85 80 76 71 65 61 60 64 76 88 91 91 90 91 96 105 122 140 156
175 175 175 175 172 169 166 163 162 160 157 154 152 153 153 150 147 145 142 139 135 128 123 120 119 118 120 124 127 127 126 127 127 126 124 119 114 109 103 96 93 90 89 91 94 94 94 95 95 95 94 90 86 84 82 80 82 85 85 83 79 79 82 83 86 88 85 79 75 70 69 69 68 66 72 82 86 87 83 82 86 91 101 114 133
176 176 175 175 174 172 169 165 164 162 159 156 155 155 155 152 149 147 144 139 134 129 126 124 123 121 121 122 124 127 127 131 132 130 127 123 118 111 106 101 97 93 91 93 95 95 94 96 96 97 99 96 89 83 84 83 82 83 86 84 81 83 87 87 88 89 86 81 77 72 71 73 75 72 75 81 85 84 79 75 78 83 89 93 108
176 176 176 175 175 175 172 167 165 164 162 158 157 158 156 154 152 149 145 140 135 132 132 130 129 125 126 127 127 130 133 135 135 133 130 126 120 112 109 104 100 98 97 94 92 92 92 92 92 91 94 98 94 85 81 80 82 85 86 84 83 86 92 94 93 93 91 90 88 82 77 75 76 76 78 84 88 86 80 75 75 80 86 89 96
178 177 177 177 176 176 176 170 166 166 165 161 161 161 159 156 155 152 147 142 138 138 140 136 135 136 135 136 135 137 140 140 139 136 132 127 120 114 112 104 98 105 109 104 98 94 90 91 92 85 87 97 97 90 83 76 78 83 87 87 84 85 93 99 96 90 92 98 105 101 90 81 79 77 78 84 87 87 83 80 77 78 82 87 90
180 180 178 178 178 178 178 174 169 167 166 165 165 165 162 160 159 155 149 145 143 145 147 143 145 147 145 143 143 145 144 143 142 137 133 127 122 117 117 113 104 110 118 111 103 101 97 99 100 87 84 90 90 89 88 80 74 74 85 94 87 82 88 99 97 90 89 97 111 115 105 94 87 81 77 81 82 84 85 81 79 77 78 84 90
181 181 180 180 180 181 179 176 173 170 168 168 170 170 167 166 164 159 154 149 149 153 155 152 155 153 148 148 148 149 145 144 143 136 136 131 123 118 118 119 112 110 117 111 99 100 102 102 102 94 82 76 75 78 83 82 76 74 79 86 82 75 81 99 100 92 89 92 110 120 117 109 99 89 80 83 84 84 87 82 79 78 77 81 88
182 181 182 183 183 183 180 178 177 174 172 172 173 174 173 172 169 163 157 154 154 159 161 159 161 157 150 151 150 149 146 144 141 137 140 136 124 117 117 120 114 113 116 111 98 91 88 82 83 86 79 71 68 69 77 81 77 71 68 76 80 67 72 99 105 97 90 91 108 119 120 117 109 100 93 97 99 96 97 93 88 85 81 82 86
185 182 185 185 185 185 181 179 179 177 176 176 177 178 178 176 172 166 159 159 161 162 166 163 162 163 157 155 151 147 145 144 139 137 143 137 124 117 119 120 114 114 112 106 100 84 77 74 72 75 74 71 68 65 73 79 76 68 70 78 75 69 76 99 109 102 93 93 106 116 118 117 111 106 105 108 114 114 114 113 108 99 89 88 89
188 185 188 188 188 188 183 181 181 179 180 179 180 182 181 178 174 170 163 163 168 169 173 168 164 169 165 159 155 150 147 144 137 139 145 135 125 123 124 123 115 113 109 103 100 89 78 72 66 67 71 68 64 64 62 55 50 56 76 77 63 68 78 98 114 111 102 98 102 110 112 112 109 107 113 120 124 126 125 123 121 113 104 98 95
191 189 191 190 192 191 184 183 183 182 183 182 183 186 183 181 179 174 168 167 172 177 181 175 167 170 170 164 162 158 151 147 141 141 144 135 128 127 123 117 109 104 102 100 96 89 78 66 59 58 67 68 65 63 54 33 15 23 54 70 69 71 74 100 122 122 111 101 100 106 107 107 106 105 114 126 129 129 127 125 124 121 118 112 103
191 190 192 192 193 193 188 185 186 185 185 185 186 188 186 184 184 178 172 172 176 182 187 182 171 169 171 168 164 161 157 149 143 142 141 137 130 123 115 105 98 96 92 89 84 80 74 63 55 51 53 60 61 56 45 27 11 6 21 50 69 66 71 105 125 126 115 105 103 105 106 105 103 105 117 126 128 129 127 124 123 122 123 123 117
190 189 192 195 193 193 191 188 189 187 186 188 188 190 189 188 187 183 179 177 181 188 192 189 179 173 171 167 163 164 164 153 144 145 141 135 126 117 111 99 90 88 84 82 79 72 67 60 53 46 46 54 59 59 44 21 13 358 355 25 50 54 72 109 123 124 118 111 111 108 109 111 106 105 115 125 130 132 130 124 120 117 118 121 124
192 191 192 194 192 193 193 190 192 189 187 190 190 190 191 192 191 187 185 182 185 192 193 191 185 178 172 166 167 170 169 162 156 152 144 135 128 119 108 99 88 81 79 80 82 77 68 62 59 51 48 51 58 62 40 14 8 344 343 15 39 46 65 112 128 124 120 116 121 118 113 115 114 110 109 117 131 142 143 135 124 121 119 120 123
193 195 195 193 192 194 195 193 194 191 189 192 192 191 192 194 196 192 188 186 187 190 190 192 189 181 175 171 171 173 172 170 168 158 148 141 132 122 111 106 97 84 84 88 90 88 76 66 64 56 50 50 52 50 27 8 354 332 341 10 33 35 39 118 136 125 119 121 129 126 117 120 124 121 113 111 123 139 148 145 129 121 121 120 122
192 195 197 196 193 195 197 195 196 193 190 193 194 194 193 195 199 197 192 189 189 190 190 195 195 182 175 176 176 176 176 176 176 163 154 145 130 122 115 110 99 90 95 98 92 83 78 72 66 55 49 45 40 29 8 360 348 331 338 1 20 13 7 87 122 122 122 128 131 126 123 131 134 128 121 115 120 129 135 143 134 121 117 117 119
193 194 198 200 197 196 197 196 198 196 192 194 196 196 194 197 202 201 197 192 190 192 192 196 199 190 179 179 180 182 180 179 179 170 165 159 144 134 120 115 106 97 102 104 100 91 91 85 70 54 43 35 29 23 359 359 354 337 342 350 355 353 12 65 104 126 136 139 131 118 114 128 134 129 124 120 118 111 113 127 131 127 125 128 131
194 196 199 202 201 199 199 198 197 198 196 195 197 198 196 198 202 203 201 195 191 192 194 194 197 198 192 186 183 188 186 180 181 181 179 174 163 155 135 126 119 115 116 115 113 104 94 80 69 56 48 46 38 31 17 18 6 344 348 344 335 346 12 52 100 133 139 133 122 114 109 115 122 124 124 121 118 105 104 116 117 115 120 128 137
195 197 200 202 203 202 201 200 198 198 197 196 199 200 199 200 202 202 201 198 194 192 193 193 196 199 200 193 187 191 193 187 187 188 188 183 175 171 152 137 130 128 129 122 107 91 80 75 70 59 55 59 60 56 53 49 25 343 338 349 359 351 9 47 103 130 132 120 104 101 97 72 321 242 201 149 135 117 109 112 108 110 112 117 129
198 197 201 203 202 201 202 202 200 199 198 198 200 202 202 202 202 202 200 198 196 194 193 194 195 198 199 198 192 192 196 197 194 193 192 190 187 186 168 146 136 131 132 122 102 89 81 79 75 66 59 57 65 74 80 75 52 344 322 351 12 345 19 75 118 127 126 118 105 76 41 40 302 260 240 224 197 170 136 114 95 98 117 133 140
199 198 201 205 202 200 201 203 204 203 201 200 202 204 205 204 203 202 199 197 198 197 194 194 196 197 198 196 194 195 197 200 199 195 194 193 192 196 186 157 140 132 134 125 109 100 90 85 78 68 64 60 63 72 84 92 80 50 332 359 13 352 36 98 138 132 135 137 130 81 64 88 285 289 223 214 204 195 177 131 60 7 313 203 176
200 201 203 205 204 201 200 202 206 206 204 203 204 206 207 207 206 203 200 197 199 199 196 195 195 198 199 196 194 198 197 199 200 194 194 196 194 197 194 170 148 140 142 132 113 107 98 89 83 72 68 67 65 66 71 79 71 60 38 8 18 38 50 104 150 142 139 135 116 85 91 125 62 59 81 86 110 126 123 114 54 12 360 276 207
202 204 205 206 205 205 201 200 205 208 207 204 204 205 206 207 205 203 203 201 199 200 200 198 194 194 199 197 196 199 197 197 199 194 193 198 200 200 195 178 157 149 149 143 125 114 105 92 86 79 74 72 70 65 61 65 65 55 51 37 62 78 82 119 147 138 122 114 96 86 99 109 70 68 74 73 84 95 95 95 76 61 57 56 61
205 206 207 207 206 206 204 200 202 207 208 205 202 201 203 206 203 201 203 205 204 203 203 202 195 190 196 199 198 199 198 197 199 195 193 198 205 204 196 187 168 154 151 149 139 121 109 97 89 84 79 75 74 68 58 58 62 59 55 53 80 94 103 124 136 123 104 103 95 90 97 90 70 62 65 68 74 80 82 81 74 70 68 69 68
211 209 210 210 208 206 205 203 201 206 208 205 201 199 200 204 203 201 201 203 204 204 203 202 196 190 194 200 200 200 201 201 201 200 197 198 205 208 202 194 180 163 158 154 147 130 118 106 96 90 84 81 79 74 62 55 58 60 60 55 71 95 106 120 128 114 95 102 108 101 93 84 71 58 66 70 67 74 77 70 70 74 75 76 75
213 213 212 213 211 208 206 204 201 204 208 205 201 200 201 203 204 203 203 203 205 205 202 201 198 193 194 202 204 203 205 204 204 207 205 201 205 212 211 205 192 174 164 157 148 138 128 117 107 99 93 92 88 81 69 58 55 59 63 60 62 82 99 107 107 95 93 104 111 109 95 86 79 74 82 75 61 67 71 62 60 68 72 71 72
213 212 212 213 213 210 208 206 202 203 206 206 203 203 203 204 205 205 205 207 209 208 204 203 202 198 196 203 208 207 207 208 209 211 211 208 207 212 217 214 200 180 170 162 152 143 135 126 118 111 105 101 95 87 77 64 59 59 62 64 62 70 85 93 91 89 94 102 106 107 99 92 89 87 87 78 65 64 67 68 60 54 60 63 63
212 209 210 211 212 211 207 206 204 202 204 206 205 205 205 205 205 204 203 205 207 206 205 207 208 203 198 202 209 210 209 211 215 215 216 215 212 212 217 219 208 185 176 170 162 153 143 136 130 126 119 110 100 89 81 73 67 63 63 68 69 68 73 79 80 83 90 97 98 99 97 93 89 86 87 82 74 70 66 72 77 67 62 70 69
210 207 208 210 212 211 207 206 204 202 203 205 206 206 207 206 206 204 201 200 201 201 204 209 212 208 202 203 209 212 211 214 218 220 220 219 216 214 216 219 215 198 184 176 170 163 155 148 143 139 133 124 112 95 84 81 79 75 71 73 75 74 72 71 72 73 78 83 82 83 85 86 90 95 95 90 83 80 79 86 97 100 95 88 84
210 207 206 209 212 212 209 206 203 201 201 203 205 205 205 206 206 204 201 199 201 203 205 211 214 212 206 205 210 214 215 216 220 224 223 220 217 216 216 218 219 211 195 181 173 169 165 160 153 148 144 139 132 112 92 87 89 90 86 82 80 79 78 74 71 70 71 73 74 75 73 77 91 101 97 91 85 81 89 101 109 114 105 76 68
209 207 205 206 209 212 211 208 204 201 200 202 203 203 204 206 207 205 202 202 204 208 212 215 218 216 210 206 210 215 219 220 220 224 224 220 218 216 216 218 220 216 205 190 181 175 173 170 163 155 151 152 150 135 113 96 96 99 97 94 89 83 83 82 79 75 71 71 74 75 70 68 77 88 88 85 82 79 85 97 106 105 70 44 42